Location: Carrières
(48.9495°N, 2.0407°E)
Time: 11:07:15
(UTC+00:00)

Transit 2A Rocket - Pass Details

Date: 23 April 2024
Orbit: 584 x 909 km, 66.7° (Epoch: 25 May)

Event Time Altitude Azimuth Distance (km) Brightness Sun altitude
Rises 16:17:59 0° 322° (NW) 3,178 8.6 24.7°
Reaches altitude 10° 16:21:25 10° 346° (NNW) 2,326 7.7 24.2°
Maximum altitude 16:24:24 15° 20° (NNE) 2,065 7.1 23.7°
Drops below altitude 10° 16:27:31 10° 54° (NE) 2,442 7.2 23.2°
Sets 16:31:15 0° 77° (ENE) 3,438 7.8 22.6°
